Regional Weather Roundup
Issued by NWS

Home | Current Version | Previous Version | Text Only | Print | Product List | Glossary On
Versions: 1 2 3 4 5 6 7 8 9 10 11 12 13 14 15 16 17 18 19 20 21 22 23 24 25 26 27 28 29 30 31 32 33 34 35 36 37 38 39 40 41 42 43 44 45 46 47 48 49 50
000
ASUS45 KPSR 271310
RWRAZ

ARIZONA REGIONAL HOURLY WEATHER ROUNDUP
NATIONAL WEATHER SERVICE TUCSON AZ
600 AM MST TUE JUN 27 2017

NOTE: FAIR INDICATES FEW OR NO CLOUDS BELOW 12,000 FEET WITH NO
SIGNIFICANT WEATHER AND/OR OBSTRUCTIONS TO VISIBILITY.

AZZ001>003-036-271400-
NORTHWEST ARIZONA

CITY           SKY/WX    TMP DP  RH WIND       PRES   REMARKS
BULLHEAD CITY  CLEAR     88  30  12 SE5       29.75R
KINGMAN        CLEAR     71  24  17 S12       29.94S
$$

AZZ004>008-015-016-018-271400-
NORTH CENTRAL ARIZONA

CITY           SKY/WX    TMP DP  RH WIND       PRES   REMARKS
GRAND CANYON   CLEAR     45  25  45 CALM      30.20R
PRESCOTT       CLEAR     67  26  21 S8        30.10R
FLAGSTAFF      CLEAR     49  28  44 CALM      30.25R
PAYSON         SUNNY     70  36  28 NE3       30.15S
PAGE           CLEAR     75  30  19 CALM      29.98R
$$

AZZ009>014-017-271400-
NORTHEAST ARIZONA

CITY           SKY/WX    TMP DP  RH WIND       PRES   REMARKS
WINSLOW        CLEAR     61  33  35 CALM      30.10R
SAINT JOHNS    PTCLDY    69  41  36 VRB3      30.18R
WINDOW ROCK    CLEAR     51  35  54 CALM      30.24R
SHOW LOW       CLEAR     63  39  42 S9        30.25R
$$

AZZ023-271400-
GREATER PHOENIX AREA

CITY           SKY/WX    TMP DP  RH WIND       PRES   REMARKS
PHOENIX        CLEAR     87  44  22 E8        29.80R
BUCKEYE        SUNNY     77  30  18 NE5       29.81R
GLENDALE       PTCLDY    90  32  12 S6        29.82
LUKE AFB       CLEAR     87  35  15 S10       29.79R
DEER VALLEY    CLEAR     85  38  18 E5        29.83R
SCOTTSDALE     CLEAR     84  44  24 CALM      29.85R
MESA-FALCON    CLEAR     88  46  23 SE8       29.84R
MESA-GATEWAY   CLEAR     81  48  32 E9        29.85R
CHANDLER       CLEAR     86  34  15 S7        29.83
$$

AZZ027-028-271400-
SOUTHWEST MARICOPA COUNTY AND PINAL COUNTY

CITY           SKY/WX    TMP DP  RH WIND       PRES   REMARKS
CASA GRANDE    CLEAR     81  50  33 SE3       29.87R
$$

AZZ503-504-507>509-271400-
SOUTHEAST ARIZONA

CITY           SKY/WX    TMP DP  RH WIND       PRES   REMARKS
TUCSON         CLEAR     81  54  39 SE9       30.00R
DAVIS-MONTHAN  CLEAR     79  54  41 S9        29.98R
NOGALES        CLEAR     68  59  73 CALM      30.10R
SIERRA VISTA   CLEAR     68  49  50 W8        30.15R
DOUGLAS        MOCLDY    71  57  61 SE6       30.10S
SAFFORD        CLEAR     76  49  38 E7        30.00R
$$

AZZ020-021-025-026-031-271400-
SOUTHWEST ARIZONA

CITY           SKY/WX    TMP DP  RH WIND       PRES   REMARKS
YUMA           CLEAR     81  37  20 S7        29.77R
$$

CAZ031-033-041-043-047-048-061-271400-
SOUTHERN CALIFORNIA

CITY           SKY/WX    TMP DP  RH WIND       PRES   REMARKS
DOWNTOWN L.A.  CLEAR     67  57  70 CALM      29.86S
L.A. AIRPORT   PTCLDY    63  59  87 E5        29.86S
SAN DIEGO      PTCLDY    66  65  96 CALM      29.89S
BURBANK        CLEAR     69  41  36 CALM      29.88R
ONTARIO        CLEAR     70  52  52 CALM      29.89S
RIVERSIDE      CLEAR     64  49  57 NE3       29.90R
PALM SPRINGS   CLEAR     84  32  15 CALM      29.78R
EL CENTRO NAS  CLEAR     76  26  15 NW6       29.76R
IMPERIAL       CLEAR     80  39  23 W7        29.73R
BLYTHE         CLEAR     79  33  19 W6        29.75R
NEEDLES        CLEAR     93  24   8 CALM      29.77R
$$

NVZ020-UTZ003-271400-
SOUTHERN NEVADA-UTAH

CITY           SKY/WX    TMP DP  RH WIND       PRES   REMARKS
LAS VEGAS      CLEAR     83  22  10 S8        29.81R
SALT LAKE CITY PTCLDY    73  47  39 SW3       29.91R
$$

NMZ009-TXZ055-271400-
NEW MEXICO-WEST TEXAS

CITY           SKY/WX    TMP DP  RH WIND       PRES   REMARKS
ALBUQUERQUE    CLOUDY    65  53  65 NW9       30.20S
EL PASO        MOSUNNY   71  61  70 E5        30.14S
$$


........................KEY........................
SKY/WX - SKY CONDITION/WEATHER
TMP    - TEMPERATURE IN FAHRENHEIT
DP     - DEWPOINT IN FAHRENHEIT
RH     - RELATIVE HUMIDITY IN PERCENT
WIND   - DIRECTION AND SPEED IN MILES PER HOUR (MPH)
VRB    - VARIABLE WIND DIRECTION
PRES   - MEAN SEA LEVEL PRESSURE IN INCHES OF MERCURY
         F - FALLING PRESSURE   R - RISING PRESSURE
         S - STEADY PRESSURE
VSB    - VISIBILITY IN MILES
HX     - HEAT INDEX IN FAHRENHEIT
WCI    - WIND CHILL INDEX IN FAHRENHEIT
TC     - TEMPERATURE IN CELSIUS WHICH IS ALSO KNOWN AS
         TEMPERATURE IN CENTIGRADE
AFB    - AIR FORCE BASE
         LUKE AFB IS LUKE AIR FORCE BASE
         DAVIS-MONTHAN IS DAVIS-MONTHAN AIR FORCE BASE
NAS    - NAVAL AIR STATION
         EL CENTRO NAS IS EL CENTRO NAVAL AIR STATION
N/A    - NOT AVAILABLE




USA.gov is the U.S. government's official web portal to all federal, state and local government web resources and services.